Retour au catalogue

NOAA 16 DEB

ActifPO
NORAD 41249·DEBRIS·🇺🇸 United States

Lancé Sep 21, 2000 depuis Vandenberg Space Force Base

Loading…

Prochains Passages (prochaines 24 heures)

TLE

FraisSource: Space-Track

Époque: Sep 13, 2026, 11:35 UTC

1 41249U 00055EZ  26256.48300454  .00005540  00000-0  11217-2 0  9997
2 41249  98.9500 136.0746 0029643 114.5821 245.8471 14.61460375558709

Suivez NOAA 16 DEB en temps réel avec AllMySat

Download on the App Store